Starlink 35586

operational
NORAD ID: 66159 Int'l Des: 2025-240 Owner: SPXS Country: US Constellation: starlink
LEOCIRCULAR

About Starlink 35586

Description loading...

Live Position

Loading 3D Globe...

Upcoming Passes

Altitude History

Altitude vs Time

uPlot chart will show altitude changes over time

Two-Line Element Set

1 66159C 25240Q 25298.74215278 .00641130 00000+0 10414-2 0 2980
2 66159 53.1577 338.8176 0009118 268.3751 322.4608 16.01926567 13
Epoch: Oct 25, 2025 • Age: 141 hours

Current Status

Altitude 247.8 km
Velocity 7.76 km/s
Sub-Earth Point -10.84°S, 47.29°W
Launch Date Oct 25, 2025
Age 5 days
Type internet

Technical Details

Classification Payload
Mass 575.00 kg
Dry Mass 530.00 kg
Total Mass 575.00 kg
Length 0.30 m
Diameter 4.10 m
Span 29.00 m
Shape Box + pan
Manufacturer SPXS
Bus Type Starlink V2MO
Phase Status In Orbit
Owner/State SPXS/US

Large Constellations

Loading constellations...